STARLINK-1409 (45704 NORAD) Tracking and Keplerian Element Data

This shows tracking and keplerian element data for the satellite.

Feedback or suggestion? Click here.




ElementValue
Catalog45704
NameSTARLINK-1409
Epoch Orbit567
Epoch Day186.50001157
Epoch Year2020
RAAN20.5732
Inclination53.0003
Eccentricity0.0001266
Argument of Perigee75.383
Mean Anonmoly29.3483
Mean Motion15.46620628
Decay Rate-0.01077779
L11 45704U 20035AZ 20186.50001157 -.01077779 00000-0 -23499-1 0 9994
L22 45704 53.0003 20.5732 0001266 75.3830 29.3483 15.46620628 5670

Live tracking and technical data element details for STARLINK-1409 (NORAD 45704). STARLINK-1409 can be tracked NOW for your location showing map with azimuth and elevation plus other details from your city location.

Track the satellite on the map from your city or location and see movement details for azimuth, elevation, latitude, longitude, range, height, and movement on the map or in text.







IsCatalogInMostPopularTable: catalog: 45704, numindb: 4
Update: records affected: 1



GetName: 45704 STARLINK-1409

Hit Count: updated at: Sun, 05 Jul 2020 15:57:20 GMT